Location: Arroyo Retuerta
(40.5469°N, 4.3534°W)
Time: 12:21:16
(UTC+00:00)

Meteor 1-23 Rocket - Pass Details

Date: 01 June 2020
Orbit: 838 x 887 km, 81.3° (Epoch: 05 July)

Event Time Altitude Azimuth Distance (km) Brightness Sun altitude
Exits shadow 21:41:04 12° 195° (SSW) 2,339 6.1 -17.7°
Maximum altitude 21:46:19 75° 279° (W) 894 4.4 -18.3°
Drops below altitude 10° 21:51:59 10° 6° (N) 2,490 7.3 -18.9°
Sets 21:54:24 0° 8° (N) 3,423 8.1 -19.2°
